#datetime,building,power
2022-05-22T00:00:00,mfh,35.30
2022-05-22T00:01:00,mfh,35.26
2022-05-22T00:02:00,mfh,35.83
2022-05-22T00:03:00,mfh,35.72
2022-05-22T00:04:00,mfh,35.73
2022-05-22T00:05:00,mfh,35.74
2022-05-22T00:06:00,mfh,35.07
2022-05-22T00:07:00,mfh,34.98
2022-05-22T00:08:00,mfh,34.98
2022-05-22T00:09:00,mfh,34.97
2022-05-22T00:10:00,mfh,35.80
2022-05-22T00:11:00,mfh,36.06
2022-05-22T00:12:00,mfh,35.72
2022-05-22T00:13:00,mfh,35.68
2022-05-22T00:14:00,mfh,34.98
2022-05-22T00:15:00,mfh,34.97
2022-05-22T00:16:00,mfh,35.48
2022-05-22T00:17:00,mfh,35.44
2022-05-22T00:18:00,mfh,35.47
2022-05-22T00:19:00,mfh,35.99
2022-05-22T00:20:00,mfh,35.20
2022-05-22T00:21:00,mfh,35.28
2022-05-22T00:22:00,mfh,35.26
2022-05-22T00:23:00,mfh,35.51
2022-05-22T00:24:00,mfh,34.51
2022-05-22T00:25:00,mfh,34.51
2022-05-22T00:26:00,mfh,34.60
2022-05-22T00:27:00,mfh,35.22
2022-05-22T00:28:00,mfh,35.23
2022-05-22T00:29:00,mfh,35.26
2022-05-22T00:30:00,mfh,35.30
2022-05-22T00:31:00,mfh,34.68
2022-05-22T00:32:00,mfh,34.87
2022-05-22T00:33:00,mfh,34.91
2022-05-22T00:34:00,mfh,34.83
2022-05-22T00:35:00,mfh,36.33
2022-05-22T00:36:00,mfh,35.41
2022-05-22T00:37:00,mfh,35.89
2022-05-22T00:38:00,mfh,35.52
2022-05-22T00:39:00,mfh,35.52
2022-05-22T00:40:00,mfh,34.92
2022-05-22T00:41:00,mfh,34.87
2022-05-22T00:42:00,mfh,35.77
2022-05-22T00:43:00,mfh,34.97
2022-05-22T00:44:00,mfh,35.54
2022-05-22T00:45:00,mfh,35.61
2022-05-22T00:46:00,mfh,35.61
2022-05-22T00:47:00,mfh,35.62
2022-05-22T00:48:00,mfh,34.94
2022-05-22T00:49:00,mfh,34.91
2022-05-22T00:50:00,mfh,34.70
2022-05-22T00:51:00,mfh,34.74
2022-05-22T00:52:00,mfh,35.37
2022-05-22T00:53:00,mfh,35.49
2022-05-22T00:54:00,mfh,36.10
2022-05-22T00:55:00,mfh,35.40
2022-05-22T00:56:00,mfh,34.75
2022-05-22T00:57:00,mfh,34.73
2022-05-22T00:58:00,mfh,34.65
2022-05-22T00:59:00,mfh,34.65
2022-05-22T01:00:00,mfh,35.25
2022-05-22T01:01:00,mfh,35.22
2022-05-22T01:02:00,mfh,35.26
2022-05-22T01:03:00,mfh,35.30
2022-05-22T01:04:00,mfh,34.63
2022-05-22T01:05:00,mfh,34.76
2022-05-22T01:06:00,mfh,34.75
2022-05-22T01:07:00,mfh,35.67
2022-05-22T01:08:00,mfh,36.30
2022-05-22T01:09:00,mfh,36.36
2022-05-22T01:10:00,mfh,36.74
2022-05-22T01:11:00,mfh,35.60
2022-05-22T01:12:00,mfh,35.59
2022-05-22T01:13:00,mfh,34.91
2022-05-22T01:14:00,mfh,34.92
2022-05-22T01:15:00,mfh,34.92
2022-05-22T01:16:00,mfh,34.90
2022-05-22T01:17:00,mfh,35.62
2022-05-22T01:18:00,mfh,36.44
2022-05-22T01:19:00,mfh,35.89
2022-05-22T01:20:00,mfh,35.51
2022-05-22T01:21:00,mfh,34.84
2022-05-22T01:22:00,mfh,34.85
2022-05-22T01:23:00,mfh,34.65
2022-05-22T01:24:00,mfh,34.74
2022-05-22T01:25:00,mfh,35.34
2022-05-22T01:26:00,mfh,35.40
2022-05-22T01:27:00,mfh,35.68
2022-05-22T01:28:00,mfh,35.58
2022-05-22T01:29:00,mfh,35.00
2022-05-22T01:30:00,mfh,34.91
2022-05-22T01:31:00,mfh,34.85
2022-05-22T01:32:00,mfh,34.92
2022-05-22T01:33:00,mfh,34.92
2022-05-22T01:34:00,mfh,35.48
2022-05-22T01:35:00,mfh,35.51
2022-05-22T01:36:00,mfh,36.35
2022-05-22T01:37:00,mfh,35.27
2022-05-22T01:38:00,mfh,34.79
2022-05-22T01:39:00,mfh,34.76
2022-05-22T01:40:00,mfh,35.00
2022-05-22T01:41:00,mfh,35.10
2022-05-22T01:42:00,mfh,35.74
2022-05-22T01:43:00,mfh,35.71
2022-05-22T01:44:00,mfh,35.75
2022-05-22T01:45:00,mfh,35.75
2022-05-22T01:46:00,mfh,35.05
2022-05-22T01:47:00,mfh,35.23
2022-05-22T01:48:00,mfh,36.17
2022-05-22T01:49:00,mfh,35.29
2022-05-22T01:50:00,mfh,35.91
2022-05-22T01:51:00,mfh,35.86
2022-05-22T01:52:00,mfh,35.96
2022-05-22T01:53:00,mfh,35.92
2022-05-22T01:54:00,mfh,35.13
2022-05-22T01:55:00,mfh,35.13
2022-05-22T01:56:00,mfh,34.91
2022-05-22T01:57:00,mfh,34.92
2022-05-22T01:58:00,mfh,35.46
2022-05-22T01:59:00,mfh,36.35
2022-05-22T02:00:00,mfh,37.28
2022-05-22T02:01:00,mfh,36.40
2022-05-22T02:02:00,mfh,36.20
2022-05-22T02:03:00,mfh,34.62
2022-05-22T02:04:00,mfh,34.64
2022-05-22T02:05:00,mfh,34.54
2022-05-22T02:06:00,mfh,34.54
2022-05-22T02:07:00,mfh,35.41
2022-05-22T02:08:00,mfh,35.18
2022-05-22T02:09:00,mfh,35.20
2022-05-22T02:10:00,mfh,35.27
2022-05-22T02:11:00,mfh,34.62
2022-05-22T02:12:00,mfh,34.53
2022-05-22T02:13:00,mfh,34.77
2022-05-22T02:14:00,mfh,34.78
2022-05-22T02:15:00,mfh,35.88
2022-05-22T02:16:00,mfh,35.51
2022-05-22T02:17:00,mfh,35.52
2022-05-22T02:18:00,mfh,35.55
2022-05-22T02:19:00,mfh,35.59
2022-05-22T02:20:00,mfh,35.01
2022-05-22T02:21:00,mfh,35.10
2022-05-22T02:22:00,mfh,35.08
2022-05-22T02:23:00,mfh,34.98
2022-05-22T02:24:00,mfh,36.19
2022-05-22T02:25:00,mfh,35.73
2022-05-22T02:26:00,mfh,35.76
2022-05-22T02:27:00,mfh,35.73
2022-05-22T02:28:00,mfh,34.86
2022-05-22T02:29:00,mfh,34.94
2022-05-22T02:30:00,mfh,34.92
2022-05-22T02:31:00,mfh,34.98
2022-05-22T02:32:00,mfh,35.72
2022-05-22T02:33:00,mfh,35.66
2022-05-22T02:34:00,mfh,35.66
2022-05-22T02:35:00,mfh,35.64
2022-05-22T02:36:00,mfh,34.96
2022-05-22T02:37:00,mfh,34.96
2022-05-22T02:38:00,mfh,35.15
2022-05-22T02:39:00,mfh,35.06
2022-05-22T02:40:00,mfh,35.00
2022-05-22T02:41:00,mfh,35.73
2022-05-22T02:42:00,mfh,35.75
2022-05-22T02:43:00,mfh,35.81
2022-05-22T02:44:00,mfh,35.74
2022-05-22T02:45:00,mfh,34.97
2022-05-22T02:46:00,mfh,35.15
2022-05-22T02:47:00,mfh,36.04
2022-05-22T02:48:00,mfh,35.12
2022-05-22T02:49:00,mfh,35.75
2022-05-22T02:50:00,mfh,35.89
2022-05-22T02:51:00,mfh,36.59
2022-05-22T02:52:00,mfh,36.98
2022-05-22T02:53:00,mfh,35.99
2022-05-22T02:54:00,mfh,35.92
2022-05-22T02:55:00,mfh,34.99
2022-05-22T02:56:00,mfh,34.93
2022-05-22T02:57:00,mfh,35.69
2022-05-22T02:58:00,mfh,35.69
2022-05-22T02:59:00,mfh,35.61
2022-05-22T03:00:00,mfh,35.64
2022-05-22T03:01:00,mfh,34.77
2022-05-22T03:02:00,mfh,34.83
2022-05-22T03:03:00,mfh,34.91
2022-05-22T03:04:00,mfh,34.90
2022-05-22T03:05:00,mfh,35.45
2022-05-22T03:06:00,mfh,35.59
2022-05-22T03:07:00,mfh,35.64
2022-05-22T03:08:00,mfh,35.79
2022-05-22T03:09:00,mfh,35.71
2022-05-22T03:10:00,mfh,35.07
2022-05-22T03:11:00,mfh,35.04
2022-05-22T03:12:00,mfh,35.00
2022-05-22T03:13:00,mfh,35.10
2022-05-22T03:14:00,mfh,35.71
2022-05-22T03:15:00,mfh,36.48
2022-05-22T03:16:00,mfh,35.91
2022-05-22T03:17:00,mfh,34.89
2022-05-22T03:18:00,mfh,34.89
2022-05-22T03:19:00,mfh,35.21
2022-05-22T03:20:00,mfh,35.17
2022-05-22T03:21:00,mfh,35.13
2022-05-22T03:22:00,mfh,35.77
2022-05-22T03:23:00,mfh,35.70
2022-05-22T03:24:00,mfh,35.81
2022-05-22T03:25:00,mfh,35.83
2022-05-22T03:26:00,mfh,35.13
2022-05-22T03:27:00,mfh,35.11
2022-05-22T03:28:00,mfh,35.89
2022-05-22T03:29:00,mfh,34.99
2022-05-22T03:30:00,mfh,35.62
2022-05-22T03:31:00,mfh,35.64
2022-05-22T03:32:00,mfh,35.68
2022-05-22T03:33:00,mfh,35.69
2022-05-22T03:34:00,mfh,35.16
2022-05-22T03:35:00,mfh,35.06
2022-05-22T03:36:00,mfh,35.04
2022-05-22T03:37:00,mfh,34.96
2022-05-22T03:38:00,mfh,35.61
2022-05-22T03:39:00,mfh,35.56
2022-05-22T03:40:00,mfh,35.57
2022-05-22T03:41:00,mfh,35.53
2022-05-22T03:42:00,mfh,35.58
2022-05-22T03:43:00,mfh,35.82
2022-05-22T03:44:00,mfh,35.82
2022-05-22T03:45:00,mfh,36.83
2022-05-22T03:46:00,mfh,35.90
2022-05-22T03:47:00,mfh,35.76
2022-05-22T03:48:00,mfh,35.63
2022-05-22T03:49:00,mfh,35.65
2022-05-22T03:50:00,mfh,35.77
2022-05-22T03:51:00,mfh,35.08
2022-05-22T03:52:00,mfh,35.28
2022-05-22T03:53:00,mfh,35.20
2022-05-22T03:54:00,mfh,36.69
2022-05-22T03:55:00,mfh,37.42
2022-05-22T03:56:00,mfh,37.50
2022-05-22T03:57:00,mfh,37.45
2022-05-22T03:58:00,mfh,37.42
2022-05-22T03:59:00,mfh,35.14
2022-05-22T04:00:00,mfh,35.06
2022-05-22T04:01:00,mfh,35.05
2022-05-22T04:02:00,mfh,35.51
2022-05-22T04:03:00,mfh,35.67
2022-05-22T04:04:00,mfh,35.69
2022-05-22T04:05:00,mfh,35.61
2022-05-22T04:06:00,mfh,35.66
2022-05-22T04:07:00,mfh,34.87
2022-05-22T04:08:00,mfh,34.87
2022-05-22T04:09:00,mfh,34.91
2022-05-22T04:10:00,mfh,34.91
2022-05-22T04:11:00,mfh,34.90
2022-05-22T04:12:00,mfh,35.48
2022-05-22T04:13:00,mfh,35.48
2022-05-22T04:14:00,mfh,35.48
2022-05-22T04:15:00,mfh,35.51
2022-05-22T04:16:00,mfh,34.88
2022-05-22T04:17:00,mfh,34.95
2022-05-22T04:18:00,mfh,34.95
2022-05-22T04:19:00,mfh,34.95
2022-05-22T04:20:00,mfh,35.51
2022-05-22T04:21:00,mfh,35.50
2022-05-22T04:22:00,mfh,35.53
2022-05-22T04:23:00,mfh,35.53
2022-05-22T04:24:00,mfh,34.94
2022-05-22T04:25:00,mfh,35.10
2022-05-22T04:26:00,mfh,35.08
2022-05-22T04:27:00,mfh,35.06
2022-05-22T04:28:00,mfh,35.70
2022-05-22T04:29:00,mfh,35.72
2022-05-22T04:30:00,mfh,35.72
2022-05-22T04:31:00,mfh,35.73
2022-05-22T04:32:00,mfh,35.16
2022-05-22T04:33:00,mfh,35.15
2022-05-22T04:34:00,mfh,35.14
2022-05-22T04:35:00,mfh,35.93
2022-05-22T04:36:00,mfh,36.56
2022-05-22T04:37:00,mfh,36.72
2022-05-22T04:38:00,mfh,36.82
2022-05-22T04:39:00,mfh,36.08
2022-05-22T04:40:00,mfh,35.08
2022-05-22T04:41:00,mfh,35.06
2022-05-22T04:42:00,mfh,35.46
2022-05-22T04:43:00,mfh,35.21
2022-05-22T04:44:00,mfh,35.88
2022-05-22T04:45:00,mfh,35.87
2022-05-22T04:46:00,mfh,36.01
2022-05-22T04:47:00,mfh,35.87
2022-05-22T04:48:00,mfh,35.91
2022-05-22T04:49:00,mfh,35.70
2022-05-22T04:50:00,mfh,35.20
2022-05-22T04:51:00,mfh,35.11
2022-05-22T04:52:00,mfh,35.41
2022-05-22T04:53:00,mfh,36.54
2022-05-22T04:54:00,mfh,35.65
2022-05-22T04:55:00,mfh,35.60
2022-05-22T04:56:00,mfh,35.65
2022-05-22T04:57:00,mfh,34.89
2022-05-22T04:58:00,mfh,35.12
2022-05-22T04:59:00,mfh,35.18
2022-05-22T05:00:00,mfh,35.19
2022-05-22T05:01:00,mfh,53.98
2022-05-22T05:02:00,mfh,54.86
2022-05-22T05:03:00,mfh,54.93
2022-05-22T05:04:00,mfh,54.97
2022-05-22T05:05:00,mfh,54.20
2022-05-22T05:06:00,mfh,54.12
2022-05-22T05:07:00,mfh,54.10
2022-05-22T05:08:00,mfh,54.04
2022-05-22T05:09:00,mfh,54.15
2022-05-22T05:10:00,mfh,54.63
2022-05-22T05:11:00,mfh,54.70
2022-05-22T05:12:00,mfh,54.16
2022-05-22T05:13:00,mfh,54.11
2022-05-22T05:14:00,mfh,53.23
2022-05-22T05:15:00,mfh,53.12
2022-05-22T05:16:00,mfh,53.12
2022-05-22T05:17:00,mfh,53.21
2022-05-22T05:18:00,mfh,53.77
2022-05-22T05:19:00,mfh,53.87
2022-05-22T05:20:00,mfh,53.94
2022-05-22T05:21:00,mfh,54.02
2022-05-22T05:22:00,mfh,53.23
2022-05-22T05:23:00,mfh,53.22
2022-05-22T05:24:00,mfh,53.23
2022-05-22T05:25:00,mfh,53.30
2022-05-22T05:26:00,mfh,53.21
2022-05-22T05:27:00,mfh,54.76
2022-05-22T05:28:00,mfh,54.95
2022-05-22T05:29:00,mfh,54.72
2022-05-22T05:30:00,mfh,54.78
2022-05-22T05:31:00,mfh,53.69
2022-05-22T05:32:00,mfh,53.45
2022-05-22T05:33:00,mfh,53.45
2022-05-22T05:34:00,mfh,53.50
2022-05-22T05:35:00,mfh,55.11
2022-05-22T05:36:00,mfh,55.02
2022-05-22T05:37:00,mfh,54.94
2022-05-22T05:38:00,mfh,54.99
2022-05-22T05:39:00,mfh,54.33
2022-05-22T05:40:00,mfh,54.27
2022-05-22T05:41:00,mfh,54.35
2022-05-22T05:42:00,mfh,54.31
2022-05-22T05:43:00,mfh,54.79
2022-05-22T05:44:00,mfh,54.83
2022-05-22T05:45:00,mfh,53.86
2022-05-22T05:46:00,mfh,53.75
2022-05-22T05:47:00,mfh,52.87
2022-05-22T05:48:00,mfh,52.76
2022-05-22T05:49:00,mfh,52.93
2022-05-22T05:50:00,mfh,52.84
2022-05-22T05:51:00,mfh,53.57
2022-05-22T05:52:00,mfh,52.58
2022-05-22T05:53:00,mfh,52.63
2022-05-22T05:54:00,mfh,52.55
2022-05-22T05:55:00,mfh,51.90
2022-05-22T05:56:00,mfh,51.93
2022-05-22T05:57:00,mfh,51.90
2022-05-22T05:58:00,mfh,51.88
2022-05-22T05:59:00,mfh,51.79
2022-05-22T06:00:00,mfh,52.60
2022-05-22T06:01:00,mfh,52.77
2022-05-22T06:02:00,mfh,52.96
2022-05-22T06:03:00,mfh,52.63
2022-05-22T06:04:00,mfh,52.45
2022-05-22T06:05:00,mfh,52.16
2022-05-22T06:06:00,mfh,52.05
2022-05-22T06:07:00,mfh,52.07
2022-05-22T06:08:00,mfh,52.66
2022-05-22T06:09:00,mfh,52.66
2022-05-22T06:10:00,mfh,52.79
2022-05-22T06:11:00,mfh,52.89
2022-05-22T06:12:00,mfh,52.23
2022-05-22T06:13:00,mfh,52.14
2022-05-22T06:14:00,mfh,52.21
2022-05-22T06:15:00,mfh,52.95
2022-05-22T06:16:00,mfh,52.83
2022-05-22T06:17:00,mfh,52.90
2022-05-22T06:18:00,mfh,53.00
2022-05-22T06:19:00,mfh,53.68
2022-05-22T06:20:00,mfh,53.10
2022-05-22T06:21:00,mfh,53.54
2022-05-22T06:22:00,mfh,53.22
2022-05-22T06:23:00,mfh,52.14
2022-05-22T06:24:00,mfh,52.65
2022-05-22T06:25:00,mfh,52.75
2022-05-22T06:26:00,mfh,53.05
2022-05-22T06:27:00,mfh,52.72
2022-05-22T06:28:00,mfh,52.11
2022-05-22T06:29:00,mfh,52.10
2022-05-22T06:30:00,mfh,52.04
2022-05-22T06:31:00,mfh,52.02
2022-05-22T06:32:00,mfh,52.16
2022-05-22T06:33:00,mfh,52.96
2022-05-22T06:34:00,mfh,52.99
2022-05-22T06:35:00,mfh,52.87
2022-05-22T06:36:00,mfh,52.92
2022-05-22T06:37:00,mfh,52.10
2022-05-22T06:38:00,mfh,52.45
2022-05-22T06:39:00,mfh,52.40
2022-05-22T06:40:00,mfh,52.26
2022-05-22T06:41:00,mfh,52.34
2022-05-22T06:42:00,mfh,53.02
2022-05-22T06:43:00,mfh,52.92
2022-05-22T06:44:00,mfh,53.10
2022-05-22T06:45:00,mfh,52.17
2022-05-22T06:46:00,mfh,52.25
2022-05-22T06:47:00,mfh,52.20
2022-05-22T06:48:00,mfh,52.06
2022-05-22T06:49:00,mfh,51.98
2022-05-22T06:50:00,mfh,52.91
2022-05-22T06:51:00,mfh,53.10
2022-05-22T06:52:00,mfh,52.73
2022-05-22T06:53:00,mfh,52.72
2022-05-22T06:54:00,mfh,51.94
2022-05-22T06:55:00,mfh,51.77
2022-05-22T06:56:00,mfh,51.82
2022-05-22T06:57:00,mfh,51.72
2022-05-22T06:58:00,mfh,52.40
2022-05-22T06:59:00,mfh,52.45
2022-05-22T07:00:00,mfh,52.36
2022-05-22T07:01:00,mfh,52.40
2022-05-22T07:02:00,mfh,52.00
2022-05-22T07:03:00,mfh,51.90
2022-05-22T07:04:00,mfh,52.06
2022-05-22T07:05:00,mfh,51.97
2022-05-22T07:06:00,mfh,52.65
2022-05-22T07:07:00,mfh,53.04
2022-05-22T07:08:00,mfh,53.32
2022-05-22T07:09:00,mfh,53.25
2022-05-22T07:10:00,mfh,52.64
2022-05-22T07:11:00,mfh,54.20
2022-05-22T07:12:00,mfh,53.74
2022-05-22T07:13:00,mfh,53.74
2022-05-22T07:14:00,mfh,53.76
2022-05-22T07:15:00,mfh,53.61
2022-05-22T07:16:00,mfh,54.36
2022-05-22T07:17:00,mfh,53.52
2022-05-22T07:18:00,mfh,53.52
2022-05-22T07:19:00,mfh,52.77
2022-05-22T07:20:00,mfh,52.94
2022-05-22T07:21:00,mfh,52.97
2022-05-22T07:22:00,mfh,52.74
2022-05-22T07:23:00,mfh,53.47
2022-05-22T07:24:00,mfh,53.82
2022-05-22T07:25:00,mfh,53.48
2022-05-22T07:26:00,mfh,53.42
2022-05-22T07:27:00,mfh,52.83
2022-05-22T07:28:00,mfh,52.49
2022-05-22T07:29:00,mfh,52.54
2022-05-22T07:30:00,mfh,52.53
2022-05-22T07:31:00,mfh,53.00
2022-05-22T07:32:00,mfh,53.11
2022-05-22T07:33:00,mfh,53.15
2022-05-22T07:34:00,mfh,53.22
2022-05-22T07:35:00,mfh,53.78
2022-05-22T07:36:00,mfh,52.50
2022-05-22T07:37:00,mfh,52.42
2022-05-22T07:38:00,mfh,52.30
2022-05-22T07:39:00,mfh,53.09
2022-05-22T07:40:00,mfh,53.08
2022-05-22T07:41:00,mfh,53.14
2022-05-22T07:42:00,mfh,53.15
2022-05-22T07:43:00,mfh,53.60
2022-05-22T07:44:00,mfh,52.56
2022-05-22T07:45:00,mfh,52.30
2022-05-22T07:46:00,mfh,52.23
2022-05-22T07:47:00,mfh,53.28
2022-05-22T07:48:00,mfh,54.03
2022-05-22T07:49:00,mfh,54.41
2022-05-22T07:50:00,mfh,54.25
2022-05-22T07:51:00,mfh,53.51
2022-05-22T07:52:00,mfh,54.21
2022-05-22T07:53:00,mfh,53.66
2022-05-22T07:54:00,mfh,53.52
2022-05-22T07:55:00,mfh,53.65
2022-05-22T07:56:00,mfh,54.25
2022-05-22T07:57:00,mfh,54.31
2022-05-22T07:58:00,mfh,54.39
2022-05-22T07:59:00,mfh,54.38
2022-05-22T08:00:00,mfh,53.57
2022-05-22T08:01:00,mfh,53.70
2022-05-22T08:02:00,mfh,53.44
2022-05-22T08:03:00,mfh,53.51
2022-05-22T08:04:00,mfh,54.98
2022-05-22T08:05:00,mfh,54.93
2022-05-22T08:06:00,mfh,55.03
2022-05-22T08:07:00,mfh,54.86
2022-05-22T08:08:00,mfh,53.28
2022-05-22T08:09:00,mfh,53.14
2022-05-22T08:10:00,mfh,53.21
2022-05-22T08:11:00,mfh,53.30
2022-05-22T08:12:00,mfh,53.41
2022-05-22T08:13:00,mfh,54.00
2022-05-22T08:14:00,mfh,53.89
2022-05-22T08:15:00,mfh,53.85
2022-05-22T08:16:00,mfh,53.82
2022-05-22T08:17:00,mfh,53.13
2022-05-22T08:18:00,mfh,53.11
2022-05-22T08:19:00,mfh,53.33
2022-05-22T08:20:00,mfh,53.31
2022-05-22T08:21:00,mfh,54.11
2022-05-22T08:22:00,mfh,54.05
2022-05-22T08:23:00,mfh,54.17
2022-05-22T08:24:00,mfh,54.14
2022-05-22T08:25:00,mfh,53.49
2022-05-22T08:26:00,mfh,53.34
2022-05-22T08:27:00,mfh,53.40
2022-05-22T08:28:00,mfh,53.24
2022-05-22T08:29:00,mfh,53.94
2022-05-22T08:30:00,mfh,53.97
2022-05-22T08:31:00,mfh,54.45
2022-05-22T08:32:00,mfh,54.09
2022-05-22T08:33:00,mfh,53.58
2022-05-22T08:34:00,mfh,53.32
2022-05-22T08:35:00,mfh,53.41
2022-05-22T08:36:00,mfh,53.32
2022-05-22T08:37:00,mfh,53.91
2022-05-22T08:38:00,mfh,54.34
2022-05-22T08:39:00,mfh,53.67
2022-05-22T08:40:00,mfh,53.66
2022-05-22T08:41:00,mfh,54.02
2022-05-22T08:42:00,mfh,52.87
2022-05-22T08:43:00,mfh,53.06
2022-05-22T08:44:00,mfh,53.34
2022-05-22T08:45:00,mfh,53.41
2022-05-22T08:46:00,mfh,54.04
2022-05-22T08:47:00,mfh,53.98
2022-05-22T08:48:00,mfh,53.88
2022-05-22T08:49:00,mfh,53.88
2022-05-22T08:50:00,mfh,53.31
2022-05-22T08:51:00,mfh,53.25
2022-05-22T08:52:00,mfh,53.23
2022-05-22T08:53:00,mfh,53.25
2022-05-22T08:54:00,mfh,53.98
2022-05-22T08:55:00,mfh,53.99
2022-05-22T08:56:00,mfh,54.16
2022-05-22T08:57:00,mfh,55.63
2022-05-22T08:58:00,mfh,65.54
2022-05-22T08:59:00,mfh,65.15
2022-05-22T09:00:00,mfh,65.01
2022-05-22T09:01:00,mfh,64.92
2022-05-22T09:02:00,mfh,64.68
2022-05-22T09:03:00,mfh,64.83
2022-05-22T09:04:00,mfh,64.83
2022-05-22T09:05:00,mfh,66.17
2022-05-22T09:06:00,mfh,65.77
2022-05-22T09:07:00,mfh,64.98
2022-05-22T09:08:00,mfh,65.21
2022-05-22T09:09:00,mfh,65.22
2022-05-22T09:10:00,mfh,65.11
2022-05-22T09:11:00,mfh,65.92
2022-05-22T09:12:00,mfh,65.78
2022-05-22T09:13:00,mfh,66.50
2022-05-22T09:14:00,mfh,66.48
2022-05-22T09:15:00,mfh,66.12
2022-05-22T09:16:00,mfh,66.47
2022-05-22T09:17:00,mfh,66.92
2022-05-22T09:18:00,mfh,66.61
2022-05-22T09:19:00,mfh,67.31
2022-05-22T09:20:00,mfh,67.77
2022-05-22T09:21:00,mfh,67.47
2022-05-22T09:22:00,mfh,67.35
2022-05-22T09:23:00,mfh,66.60
2022-05-22T09:24:00,mfh,67.29
2022-05-22T09:25:00,mfh,67.16
2022-05-22T09:26:00,mfh,67.35
2022-05-22T09:27:00,mfh,67.83
2022-05-22T09:28:00,mfh,67.80
2022-05-22T09:29:00,mfh,68.49
2022-05-22T09:30:00,mfh,67.82
2022-05-22T09:31:00,mfh,66.97
2022-05-22T09:32:00,mfh,67.13
2022-05-22T09:33:00,mfh,68.04
2022-05-22T09:34:00,mfh,66.62
2022-05-22T09:35:00,mfh,66.84
2022-05-22T09:36:00,mfh,67.42
2022-05-22T09:37:00,mfh,66.97
2022-05-22T09:38:00,mfh,66.75
2022-05-22T09:39:00,mfh,67.59
2022-05-22T09:40:00,mfh,65.74
2022-05-22T09:41:00,mfh,65.39
2022-05-22T09:42:00,mfh,65.33
2022-05-22T09:43:00,mfh,64.22
2022-05-22T09:44:00,mfh,64.48
2022-05-22T09:45:00,mfh,64.81
2022-05-22T09:46:00,mfh,64.78
2022-05-22T09:47:00,mfh,64.44
2022-05-22T09:48:00,mfh,64.94
2022-05-22T09:49:00,mfh,63.84
2022-05-22T09:50:00,mfh,64.67
2022-05-22T09:51:00,mfh,64.68
2022-05-22T09:52:00,mfh,65.51
2022-05-22T09:53:00,mfh,65.38
2022-05-22T09:54:00,mfh,65.14
2022-05-22T09:55:00,mfh,64.66
2022-05-22T09:56:00,mfh,64.61
2022-05-22T09:57:00,mfh,63.82
2022-05-22T09:58:00,mfh,63.92
2022-05-22T09:59:00,mfh,63.91
2022-05-22T10:00:00,mfh,63.87
2022-05-22T10:01:00,mfh,64.52
2022-05-22T10:02:00,mfh,64.55
2022-05-22T10:03:00,mfh,64.55
2022-05-22T10:04:00,mfh,64.95
2022-05-22T10:05:00,mfh,64.11
2022-05-22T10:06:00,mfh,64.15
2022-05-22T10:07:00,mfh,63.92
2022-05-22T10:08:00,mfh,64.83
2022-05-22T10:09:00,mfh,65.42
2022-05-22T10:10:00,mfh,65.84
2022-05-22T10:11:00,mfh,64.48
2022-05-22T10:12:00,mfh,64.00
2022-05-22T10:13:00,mfh,64.02
2022-05-22T10:14:00,mfh,65.44
2022-05-22T10:15:00,mfh,66.11
2022-05-22T10:16:00,mfh,65.95
2022-05-22T10:17:00,mfh,65.81
2022-05-22T10:18:00,mfh,65.99
2022-05-22T10:19:00,mfh,65.61
2022-05-22T10:20:00,mfh,65.76
2022-05-22T10:21:00,mfh,65.54
2022-05-22T10:22:00,mfh,66.26
2022-05-22T10:23:00,mfh,66.74
2022-05-22T10:24:00,mfh,66.10
2022-05-22T10:25:00,mfh,66.50
2022-05-22T10:26:00,mfh,66.22
2022-05-22T10:27:00,mfh,65.36
2022-05-22T10:28:00,mfh,65.34
2022-05-22T10:29:00,mfh,65.59
2022-05-22T10:30:00,mfh,65.42
2022-05-22T10:31:00,mfh,66.18
2022-05-22T10:32:00,mfh,67.05
2022-05-22T10:33:00,mfh,66.92
2022-05-22T10:34:00,mfh,65.75
2022-05-22T10:35:00,mfh,65.93
2022-05-22T10:36:00,mfh,66.36
2022-05-22T10:37:00,mfh,65.97
2022-05-22T10:38:00,mfh,66.25
2022-05-22T10:39:00,mfh,66.08
2022-05-22T10:40:00,mfh,66.85
2022-05-22T10:41:00,mfh,66.87
2022-05-22T10:42:00,mfh,67.13
2022-05-22T10:43:00,mfh,67.79
2022-05-22T10:44:00,mfh,67.27
2022-05-22T10:45:00,mfh,67.58
2022-05-22T10:46:00,mfh,67.22
2022-05-22T10:47:00,mfh,67.14
2022-05-22T10:48:00,mfh,66.93
2022-05-22T10:49:00,mfh,67.47
2022-05-22T10:50:00,mfh,66.92
2022-05-22T10:51:00,mfh,66.82
2022-05-22T10:52:00,mfh,65.97
2022-05-22T10:53:00,mfh,66.11
2022-05-22T10:54:00,mfh,66.31
2022-05-22T10:55:00,mfh,66.17
2022-05-22T10:56:00,mfh,66.76
2022-05-22T10:57:00,mfh,66.56
2022-05-22T10:58:00,mfh,66.59
2022-05-22T10:59:00,mfh,67.26
2022-05-22T11:00:00,mfh,66.54
2022-05-22T11:01:00,mfh,66.59
2022-05-22T11:02:00,mfh,66.06
2022-05-22T11:03:00,mfh,65.98
2022-05-22T11:04:00,mfh,66.21
2022-05-22T11:05:00,mfh,66.40
2022-05-22T11:06:00,mfh,67.30
2022-05-22T11:07:00,mfh,67.54
2022-05-22T11:08:00,mfh,66.88
2022-05-22T11:09:00,mfh,66.70
2022-05-22T11:10:00,mfh,66.77
2022-05-22T11:11:00,mfh,66.66
2022-05-22T11:12:00,mfh,66.96
2022-05-22T11:13:00,mfh,67.47
2022-05-22T11:14:00,mfh,67.63
2022-05-22T11:15:00,mfh,67.71
2022-05-22T11:16:00,mfh,67.58
2022-05-22T11:17:00,mfh,65.98
2022-05-22T11:18:00,mfh,65.99
2022-05-22T11:19:00,mfh,66.06
2022-05-22T11:20:00,mfh,65.97
2022-05-22T11:21:00,mfh,66.01
2022-05-22T11:22:00,mfh,67.84
2022-05-22T11:23:00,mfh,66.62
2022-05-22T11:24:00,mfh,66.53
2022-05-22T11:25:00,mfh,71.74
2022-05-22T11:26:00,mfh,78.75
2022-05-22T11:27:00,mfh,77.71
2022-05-22T11:28:00,mfh,77.73
2022-05-22T11:29:00,mfh,77.77
2022-05-22T11:30:00,mfh,77.09
2022-05-22T11:31:00,mfh,76.75
2022-05-22T11:32:00,mfh,77.20
2022-05-22T11:33:00,mfh,76.57
2022-05-22T11:34:00,mfh,76.53
2022-05-22T11:35:00,mfh,76.35
2022-05-22T11:36:00,mfh,76.15
2022-05-22T11:37:00,mfh,76.14
2022-05-22T11:38:00,mfh,77.44
2022-05-22T11:39:00,mfh,77.51
2022-05-22T11:40:00,mfh,77.56
2022-05-22T11:41:00,mfh,77.58
2022-05-22T11:42:00,mfh,76.84
2022-05-22T11:43:00,mfh,76.68
2022-05-22T11:44:00,mfh,66.33
2022-05-22T11:45:00,mfh,66.71
2022-05-22T11:46:00,mfh,67.38
2022-05-22T11:47:00,mfh,67.35
2022-05-22T11:48:00,mfh,68.04
2022-05-22T11:49:00,mfh,67.70
2022-05-22T11:50:00,mfh,67.27
2022-05-22T11:51:00,mfh,66.65
2022-05-22T11:52:00,mfh,66.62
2022-05-22T11:53:00,mfh,66.62
2022-05-22T11:54:00,mfh,67.44
2022-05-22T11:55:00,mfh,67.50
2022-05-22T11:56:00,mfh,67.65
2022-05-22T11:57:00,mfh,67.87
2022-05-22T11:58:00,mfh,67.41
2022-05-22T11:59:00,mfh,68.14
2022-05-22T12:00:00,mfh,67.41
2022-05-22T12:01:00,mfh,67.42
2022-05-22T12:02:00,mfh,67.70
2022-05-22T12:03:00,mfh,68.00
2022-05-22T12:04:00,mfh,68.92
2022-05-22T12:05:00,mfh,68.70
2022-05-22T12:06:00,mfh,68.12
2022-05-22T12:07:00,mfh,67.09
2022-05-22T12:08:00,mfh,66.84
2022-05-22T12:09:00,mfh,67.11
2022-05-22T12:10:00,mfh,66.96
2022-05-22T12:11:00,mfh,67.51
2022-05-22T12:12:00,mfh,67.88
2022-05-22T12:13:00,mfh,68.00
2022-05-22T12:14:00,mfh,68.42
2022-05-22T12:15:00,mfh,67.84
2022-05-22T12:16:00,mfh,67.47
2022-05-22T12:17:00,mfh,67.89
2022-05-22T12:18:00,mfh,68.45
2022-05-22T12:19:00,mfh,68.12
2022-05-22T12:20:00,mfh,67.99
2022-05-22T12:21:00,mfh,67.61
2022-05-22T12:22:00,mfh,67.90
2022-05-22T12:23:00,mfh,67.49
2022-05-22T12:24:00,mfh,67.34
2022-05-22T12:25:00,mfh,67.29
2022-05-22T12:26:00,mfh,67.34
2022-05-22T12:27:00,mfh,66.94
2022-05-22T12:28:00,mfh,66.99
2022-05-22T12:29:00,mfh,67.25
2022-05-22T12:30:00,mfh,66.98
2022-05-22T12:31:00,mfh,66.85
2022-05-22T12:32:00,mfh,66.38
2022-05-22T12:33:00,mfh,66.23
2022-05-22T12:34:00,mfh,66.42
2022-05-22T12:35:00,mfh,66.27
2022-05-22T12:36:00,mfh,67.04
2022-05-22T12:37:00,mfh,66.32
2022-05-22T12:38:00,mfh,66.37
2022-05-22T12:39:00,mfh,66.23
2022-05-22T12:40:00,mfh,65.61
2022-05-22T12:41:00,mfh,65.51
2022-05-22T12:42:00,mfh,65.56
2022-05-22T12:43:00,mfh,65.32
2022-05-22T12:44:00,mfh,65.92
2022-05-22T12:45:00,mfh,66.53
2022-05-22T12:46:00,mfh,66.44
2022-05-22T12:47:00,mfh,66.85
2022-05-22T12:48:00,mfh,66.64
2022-05-22T12:49:00,mfh,65.91
2022-05-22T12:50:00,mfh,65.98
2022-05-22T12:51:00,mfh,66.09
2022-05-22T12:52:00,mfh,65.86
2022-05-22T12:53:00,mfh,66.57
2022-05-22T12:54:00,mfh,66.28
2022-05-22T12:55:00,mfh,66.25
2022-05-22T12:56:00,mfh,66.95
2022-05-22T12:57:00,mfh,65.08
2022-05-22T12:58:00,mfh,65.05
2022-05-22T12:59:00,mfh,65.00
2022-05-22T13:00:00,mfh,65.28
2022-05-22T13:01:00,mfh,65.66
2022-05-22T13:02:00,mfh,65.80
2022-05-22T13:03:00,mfh,65.72
2022-05-22T13:04:00,mfh,65.80
2022-05-22T13:05:00,mfh,65.06
2022-05-22T13:06:00,mfh,64.82
2022-05-22T13:07:00,mfh,64.88
2022-05-22T13:08:00,mfh,65.06
2022-05-22T13:09:00,mfh,65.56
2022-05-22T13:10:00,mfh,65.54
2022-05-22T13:11:00,mfh,65.66
2022-05-22T13:12:00,mfh,65.51
2022-05-22T13:13:00,mfh,65.37
2022-05-22T13:14:00,mfh,66.43
2022-05-22T13:15:00,mfh,66.90
2022-05-22T13:16:00,mfh,67.63
2022-05-22T13:17:00,mfh,67.31
2022-05-22T13:18:00,mfh,67.70